This is the latest recevied weather packets stored in our database for station/object W8KHW. If no packets are shown the sender has not sent any weather packets the latest 10 day(s).
| Time | Temp. | Humidity | Pressure | Rain* | Wind** | Luminosity | Snow |
|---|---|---|---|---|---|---|---|
| 1777742391 | 9.44° C | 48% | 1018 hPa | 0 mm | - | - | - |
| 1777741891 | 8.89° C | 53% | 1018.1 hPa | 0 mm | - | - | - |
| 1777741391 | 8.33° C | 51% | 1018.3 hPa | 0 mm | - | - | - |
| 1777740891 | 8.89° C | 53% | 1018.4 hPa | 0 mm | - | - | - |
| 1777740391 | 9.44° C | 46% | 1018.3 hPa | 0 mm | - | - | - |
| 1777739891 | 8.89° C | 49% | 1018.4 hPa | 0 mm | - | - | - |
| 1777739390 | 8.33° C | 53% | 1018.4 hPa | 0 mm | - | - | - |
| 1777738890 | 8.89° C | 53% | 1018.3 hPa | 0 mm | - | - | - |
| 1777738390 | 8.89° C | 57% | 1018.8 hPa | 0 mm | - | - | - |
| 1777737890 | 8.33° C | 54% | 1018.4 hPa | 0 mm | - | - | - |
| 1777737390 | 8.33° C | 59% | 1018.5 hPa | 0 mm | - | - | - |
| 1777736889 | 8.33° C | 58% | 1018.5 hPa | 0 mm | - | - | - |
| 1777736389 | 8.89° C | 57% | 1018.6 hPa | 0 mm | - | - | - |
| 1777735889 | 8.89° C | 57% | 1018.4 hPa | 0 mm | - | - | - |
| 1777735389 | 8.33° C | 57% | 1018.7 hPa | 0 mm | - | - | - |
| 1777734889 | 8.33° C | 61% | 1018.4 hPa | 0 mm | - | - | - |
| 1777734389 | 7.78° C | 60% | 1018.5 hPa | 0 mm | - | - | - |
| 1777733889 | 7.78° C | 61% | 1018.4 hPa | 0 mm | - | - | - |
| 1777733388 | 8.33° C | 62% | 1018.4 hPa | 0 mm | - | - | - |
| 1777732888 | 8.33° C | 64% | 1018.4 hPa | 0 mm | - | - | - |
| 1777732388 | 7.78° C | 65% | 1018.4 hPa | 0 mm | - | - | - |
| 1777731887 | 7.78° C | 64% | 1018.4 hPa | 0 mm | - | - | - |
| 1777731387 | 7.78° C | 64% | 1018.2 hPa | 0 mm | - | - | - |
| 1777730887 | 7.78° C | 68% | 1018.5 hPa | 0 mm | - | - | - |
| 1777730387 | 7.22° C | 67% | 1018.3 hPa | 0 mm | - | - | - |
* Rain latest hour (hover to see other rain measurements)
** Current wind speed in m/s (hover to see current wind gust speed)